Weather History for O'Neill, NE

Change the Weather History Date:

Monday, March 10, 2014

  Actual Average Record
Temperature  
Mean Temperature 56 °F -  
Max Temperature 69 °F 47 °F 74 °F (1967)
Min Temperature 42 °F 22 °F -7 °F (1998)
Degree Days  
Heating Degree Days 10    
Growing Degree Days 6 (Base 50)    
Moisture  
Dew Point 30 °F    
Average Humidity 42    
Maximum Humidity 66    
Minimum Humidity 20    
Precipitation  
Precipitation 0.00 in - - ()
Sea Level Pressure  
Sea Level Pressure 29.74 in    
Wind  
Wind Speed 8 mph (NW)    
Max Wind Speed 13 mph    
Max Gust Speed -    
Visibility 10 miles    
Events      
Averages and records for this station are not official NWS values.
T = Trace of Precipitation, MM = Missing Value Source: NWS Daily Summary

Daily Weather History Graph

Daily Weather History Graph

Search for Another Location

Airport:

Trip Planner

Search our weather history database for the weather conditions in past years. The results will help you decide how hot, cold, wet, or windy it might be!

Date:

Astronomy

Mar. 10, 2014 Rise Set
Actual Time 7:55 AM CDT 7:35 PM CDT
Civil Twilight 7:27 AM CDT 8:03 PM CDT
Nautical Twilight 6:54 AM CDT 8:36 PM CDT
Astronomical Twilight 6:21 AM CDT 9:09 PM CDT
Moon 2:15 PM CDT (3/10) 4:13 AM CDT (3/10)
Length of Visible Light 12h 36m
Length of Day
11h 40m
Waxing Gibbous, 70% of the Moon is Illuminated
Mar 10
Waxing Gibbous
Mar 16
Full
Mar 23
Last Quarter
Mar 30
New
Apr 7
First Quarter

Hourly Weather History & Observations

Time (CDT) Temp. Windchill Dew Point Humidity Pressure Visibility Wind Dir Wind Speed Gust Speed Precip Events Conditions
12:17 AM 53.6 °F - 26.6 °F 35% 29.80 in 10.0 mi West 10.4 mph - N/A   Clear
12:37 AM 53.6 °F - 26.6 °F 35% 29.80 in 10.0 mi WNW 10.4 mph - N/A   Clear
12:57 AM 51.8 °F - 28.4 °F 41% 29.80 in 10.0 mi WNW 9.2 mph - N/A   Clear
1:17 AM 51.8 °F - 28.4 °F 41% 29.80 in 10.0 mi West 8.1 mph - N/A   Clear
1:37 AM 48.2 °F - 28.4 °F 46% 29.80 in 10.0 mi West 6.9 mph - N/A   Clear
1:57 AM 48.2 °F - 28.4 °F 46% 29.80 in 10.0 mi West 6.9 mph - N/A   Clear
2:17 AM 46.4 °F 42.4 °F 28.4 °F 50% 29.81 in 10.0 mi West 8.1 mph - N/A   Clear
2:37 AM 46.4 °F 42.4 °F 28.4 °F 50% 29.81 in 10.0 mi West 8.1 mph - N/A   Clear
2:57 AM 44.6 °F 40.2 °F 28.4 °F 53% 29.82 in 10.0 mi West 8.1 mph - N/A   Clear
3:17 AM 44.6 °F 40.2 °F 28.4 °F 53% 29.82 in 10.0 mi West 8.1 mph - N/A   Clear
3:37 AM 44.6 °F 40.7 °F 28.4 °F 53% 29.82 in 10.0 mi West 6.9 mph - N/A   Clear
3:57 AM 42.8 °F 39.3 °F 28.4 °F 57% 29.81 in 10.0 mi West 5.8 mph - N/A   Clear
4:17 AM 42.8 °F 38.6 °F 28.4 °F 57% 29.80 in 10.0 mi West 6.9 mph - N/A   Clear
4:37 AM 42.8 °F 38.6 °F 28.4 °F 57% 29.80 in 10.0 mi West 6.9 mph - N/A   Clear
4:57 AM 42.8 °F 40.1 °F 28.4 °F 57% 29.81 in 10.0 mi West 4.6 mph - N/A   Clear
5:17 AM 42.8 °F 37.5 °F 28.4 °F 57% 29.81 in 10.0 mi West 9.2 mph - N/A   Clear
5:37 AM 44.6 °F 40.7 °F 28.4 °F 53% 29.80 in 10.0 mi WNW 6.9 mph - N/A   Clear
5:57 AM 42.8 °F 38.0 °F 28.4 °F 57% 29.80 in 10.0 mi West 8.1 mph - N/A   Clear
6:17 AM 42.8 °F 38.0 °F 28.4 °F 57% 29.80 in 10.0 mi West 8.1 mph - N/A   Clear
6:37 AM 42.8 °F 38.0 °F 28.4 °F 57% 29.80 in 10.0 mi West 8.1 mph - N/A   Clear
6:57 AM 42.8 °F 37.5 °F 28.4 °F 57% 29.81 in 10.0 mi West 9.2 mph - N/A   Clear
7:19 AM 42.8 °F 38.6 °F 28.4 °F 57% 29.80 in 10.0 mi West 6.9 mph - N/A   Clear
7:37 AM 42.8 °F 38.0 °F 28.4 °F 57% 29.81 in 10.0 mi West 8.1 mph - N/A   Clear
7:57 AM 42.8 °F 38.0 °F 28.4 °F 57% 29.81 in 10.0 mi West 8.1 mph - N/A   Clear
8:17 AM 42.8 °F 38.6 °F 28.4 °F 57% 29.81 in 10.0 mi West 6.9 mph - N/A   Clear
8:37 AM 42.8 °F 39.3 °F 28.4 °F 57% 29.82 in 10.0 mi West 5.8 mph - N/A   Clear
8:57 AM 42.8 °F 39.3 °F 30.2 °F 61% 29.82 in 10.0 mi West 5.8 mph - N/A   Clear
9:17 AM 46.4 °F 43.5 °F 30.2 °F 53% 29.82 in 10.0 mi West 5.8 mph - N/A   Clear
9:37 AM 48.2 °F - 30.2 °F 50% 29.82 in 10.0 mi WNW 8.1 mph - N/A   Clear
9:57 AM 51.8 °F - 30.2 °F 44% 29.83 in 10.0 mi West 8.1 mph - N/A   Clear
10:17 AM 55.4 °F - 30.2 °F 38% 29.83 in 10.0 mi West 8.1 mph - N/A   Clear
10:37 AM 59.0 °F - 30.2 °F 34% 29.82 in 10.0 mi WNW 10.4 mph - N/A   Clear
10:57 AM 60.8 °F - 30.2 °F 31% 29.82 in 10.0 mi NW 9.2 mph - N/A   Clear
11:17 AM 62.6 °F - 30.2 °F 30% 29.82 in 10.0 mi NW 5.8 mph - N/A   Clear
11:37 AM 62.6 °F - 30.2 °F 30% 29.81 in 10.0 mi NW 4.6 mph - N/A   Clear
11:57 AM 64.4 °F - 30.2 °F 28% 29.81 in 10.0 mi North 10.4 mph - N/A   Clear
12:17 PM 64.4 °F - 30.2 °F 28% 29.81 in 10.0 mi NNW 8.1 mph - N/A   Clear
12:37 PM 64.4 °F - 28.4 °F 26% 29.79 in 10.0 mi NW 8.1 mph - N/A   Clear
12:56 PM 64.4 °F - 28.4 °F 26% 29.78 in 10.0 mi NNW 3.5 mph - N/A   Clear
1:17 PM 66.2 °F - 28.4 °F 24% 29.77 in 10.0 mi WNW 3.5 mph - N/A   Clear
1:37 PM 66.2 °F - 28.4 °F 24% 29.77 in 10.0 mi Calm Calm - N/A   Clear
2:17 PM 69.8 °F - 28.4 °F 21% 29.75 in 10.0 mi Calm Calm - N/A   Clear
2:37 PM 68.0 °F - 28.4 °F 23% 29.74 in 10.0 mi WSW 3.5 mph - N/A   Clear
2:57 PM 69.8 °F - 28.4 °F 21% 29.72 in 10.0 mi West 3.5 mph - N/A   Clear
3:37 PM 69.8 °F - 26.6 °F 20% 29.70 in 10.0 mi Calm Calm - N/A   Clear
3:57 PM 69.8 °F - 26.6 °F 20% 29.69 in 10.0 mi Calm Calm - N/A   Clear
4:16 PM 69.8 °F - 28.4 °F 21% 29.68 in 10.0 mi NE 3.5 mph - N/A   Clear
4:36 PM 69.8 °F - 28.4 °F 21% 29.67 in 10.0 mi Calm Calm - N/A   Clear
4:58 PM 69.8 °F - 28.4 °F 21% 29.66 in 10.0 mi NE 5.8 mph - N/A   Clear
5:17 PM 68.0 °F - 28.4 °F 23% 29.66 in 10.0 mi NE 6.9 mph - N/A   Clear
5:37 PM 66.2 °F - 30.2 °F 26% 29.65 in 10.0 mi ENE 8.1 mph - N/A   Clear
5:57 PM 66.2 °F - 30.2 °F 26% 29.64 in 10.0 mi ENE 6.9 mph - N/A   Clear
6:17 PM 66.2 °F - 30.2 °F 26% 29.64 in 10.0 mi NE 6.9 mph - N/A   Clear
6:37 PM 64.4 °F - 30.2 °F 28% 29.64 in 10.0 mi NE 6.9 mph - N/A   Clear
6:56 PM 62.6 °F - 30.2 °F 30% 29.64 in 10.0 mi ENE 8.1 mph - N/A   Clear
7:17 PM 59.0 °F - 32.0 °F 36% 29.64 in 10.0 mi ENE 8.1 mph - N/A   Clear
7:37 PM 57.2 °F - 33.8 °F 41% 29.64 in 10.0 mi East 5.8 mph - N/A   Clear
7:57 PM 53.6 °F - 33.8 °F 47% 29.63 in 10.0 mi East 9.2 mph - N/A   Clear
8:17 PM 55.4 °F - 33.8 °F 44% 29.62 in 10.0 mi East 12.7 mph - N/A   Clear
8:39 PM 57.2 °F - 32.0 °F 38% 29.62 in 10.0 mi East 11.5 mph - N/A   Clear
8:57 PM 57.2 °F - 32.0 °F 38% 29.61 in 10.0 mi East 10.4 mph - N/A   Clear
9:17 PM 57.2 °F - 32.0 °F 38% 29.60 in 10.0 mi East 9.2 mph - N/A   Clear
9:37 PM 53.6 °F - 33.8 °F 47% 29.60 in 10.0 mi ESE 8.1 mph - N/A   Clear
9:57 PM 53.6 °F - 33.8 °F 47% 29.60 in 10.0 mi ESE 6.9 mph - N/A   Clear
10:17 PM 53.6 °F - 33.8 °F 47% 29.59 in 10.0 mi ESE 8.1 mph - N/A   Clear
10:37 PM 53.6 °F - 33.8 °F 47% 29.59 in 10.0 mi East 8.1 mph - N/A   Clear
10:57 PM 48.2 °F - 33.8 °F 58% 29.58 in 10.0 mi ENE 4.6 mph - N/A   Clear
11:17 PM 46.4 °F 42.4 °F 33.8 °F 62% 29.58 in 10.0 mi ENE 8.1 mph - N/A   Clear
11:37 PM 44.6 °F 40.7 °F 33.8 °F 66% 29.57 in 10.0 mi ENE 6.9 mph - N/A   Clear
11:57 PM 46.4 °F 42.4 °F 33.8 °F 62% 29.57 in 10.0 mi NE 8.1 mph - N/A   Clear